revebebe.free.fr alexa rank chart, revebebe.free.fr alexa rank daily changes

revebebe.free.fr alexa rank chart, revebebe.free.fr alexa rank daily changes

revebebe.free.fr
Actual rank:
105 817

RANK HISTORY

Date Rank Diff
2017/05/25 105 817 +861
2017/05/24 104 956 -308
2017/05/23 105 264 +306
2017/05/22 104 958 -2 361
2017/05/21 107 319 +1 129
2017/05/20 106 190 +1 803
2017/05/19 104 387 +48
2017/05/18 104 339 +2 393
2017/05/17 101 946 +1 094
2017/05/16 100 852 -158
2017/05/15 101 010 +1 244
2017/05/14 99 766 +986
2017/05/13 98 780 +74
2017/05/12 98 706 -225
2017/05/11 98 931 +129
2017/05/10 98 802 -487
2017/05/09 99 289 -5 881
2017/05/08 105 170 -5 266
2017/05/07 110 436 -772
2017/05/06 111 208 -1 363
2017/05/05 112 571 -572
2017/05/04 113 143 -1 491
2017/05/03 114 634 -76
2017/05/02 114 710 -2 127
2017/05/01 116 837 -1 130
2017/04/30 117 967 +1 579
2017/04/29 116 388 -934
2017/04/28 117 322 -510
2017/04/27 117 832 -84
2017/04/26 117 916 -915
2017/04/25 118 831 +574
2017/04/24 118 257 +1 647
2017/04/23 116 610 +509
2017/04/22 116 101 +1 070
2017/04/21 115 031 +47
2017/04/20 114 984 -5
2017/04/19 114 989 +1 211
2017/04/18 113 778 -2 588
2017/04/17 116 366 -1 024
2017/04/16 117 390 -242
2017/04/15 117 632 -228
2017/04/14 117 860 +2 281
2017/04/13 115 579 +2 388
2017/04/12 113 191 +1 261
2017/04/11 111 930 -1 448
2017/04/10 113 378 -2 051
2017/04/09 115 429 +2 209
2017/04/08 113 220 +1 982
2017/04/07 111 238 +1 929
2017/04/06 109 309 +571
2017/04/05 108 738 -343
2017/04/04 109 081 -237
2017/04/03 109 318 -602
2017/04/02 109 920 -511
2017/04/01 110 431 +256
2017/03/31 110 175 -1 180
2017/03/30 111 355 +375
2017/03/29 110 980 +1 786
2017/03/28 109 194 -11
2017/03/27 109 205 -1 246
2017/03/26 110 451

WIDGET FOR YOUR SITE

DOMAINS WITH THE NEAREST RANK

Domain Rank
hammockforums.net 105 812
tefltastic.wordpress.com 105 813
7556.com 105 814
mobeoffice.com 105 815
orangenews.hk 105 816
revebebe.free.fr 105 817
farskidsiha.com 105 818
coingain.com 105 819
trafficmarket.pro 105 820
audiokinetic.com 105 821
4wei.cn 105 822

DOMAINS WITH THE NEAREST RANK BY TLD .free.fr

Domain Rank
search.free.fr 96 187
revebebe.free.fr 105 817